EST,Max TemperatureF,Mean TemperatureF,Min TemperatureF,Max Dew PointF,MeanDew PointF,Min DewpointF,Max Humidity, Mean Humidity, Min Humidity, Max Sea Level PressureIn, Mean Sea Level PressureIn, Min Sea Level PressureIn, Max VisibilityMiles, Mean VisibilityMiles, Min VisibilityMiles, Max Wind SpeedMPH, Mean Wind SpeedMPH, Max Gust SpeedMPH,PrecipitationIn, CloudCover, Events, WindDirDegrees
2012-12-1,66,47,28,44,36,28,97,76,40,30.42,30.36,30.32,10,9,5,5,0,,0.00,0,,346
2012-12-2,68,50,32,53,43,32,96,81,47,30.41,30.33,30.26,10,8,4,9,1,,0.00,1,,187
2012-12-3,75,58,43,56,48,43,97,79,41,30.30,30.27,30.22,10,8,0,10,1,,0.00,1,Fog,230
2012-12-4,72,56,39,56,48,38,97,84,49,30.32,30.25,30.19,10,10,2,10,1,16,0.00,3,,206
2012-12-5,68,56,44,56,53,44,97,82,62,30.21,30.16,30.13,10,9,0,10,4,,0.00,6,Fog-Rain,249
2012-12-6,53,46,38,44,35,31,98,68,44,30.33,30.25,30.20,10,9,0,9,3,,0.00,5,Fog,30
2012-12-7,54,49,44,50,43,34,92,79,60,30.21,30.10,30.01,10,9,1,6,3,,0.14,8,Rain,9
2012-12-8,67,56,46,53,50,45,97,87,59,30.07,30.02,29.98,10,6,2,8,2,,0.00,4,,238
2012-12-9,73,60,46,60,54,46,97,87,61,30.14,30.07,29.99,10,7,0,10,1,17,0.00,5,Fog-Rain,179
2012-12-10,71,62,55,65,59,54,98,82,60,29.99,29.81,29.71,10,7,0,17,4,24,0.01,6,Fog-Rain,196
2012-12-11,64,57,49,58,44,33,95,62,42,30.14,29.94,29.73,10,10,7,10,7,,0.00,6,,348
2012-12-12,49,44,39,39,35,30,93,68,52,30.33,30.25,30.14,10,10,7,15,7,20,0.20,8,Rain,22
2012-12-13,51,40,29,37,34,28,96,78,53,30.39,30.34,30.28,10,9,5,16,9,24,0.02,4,Rain,9
2012-12-14,58,40,23,34,28,22,96,75,26,30.38,30.31,30.24,10,10,7,5,0,,0.00,0,,216
2012-12-15,58,43,28,40,32,27,97,71,32,30.28,30.20,30.09,10,10,10,5,0,,0.00,3,,137
2012-12-16,59,53,47,56,51,38,97,91,59,30.09,30.01,29.91,10,7,2,6,1,,0.16,8,Rain,201
2012-12-17,61,58,54,58,55,53,97,91,81,29.91,29.79,29.62,10,8,1,14,3,23,0.49,6,Rain,204
2012-12-18,59,56,54,56,53,52,91,86,76,29.72,29.69,29.66,10,10,7,10,7,17,0.00,4,,220
2012-12-19,46,42,37,41,38,36,94,88,80,30.12,30.10,30.06,10,10,10,0,0,,0.00,0,,-1
2012-12-20,63,48,34,61,45,33,96,85,63,30.16,29.90,29.49,10,9,2,17,3,31,0.30,4,Rain,110
2012-12-21,51,46,37,47,27,20,74,53,36,29.84,29.68,29.53,10,10,10,23,14,34,0.00,3,,257
2012-12-22,52,39,26,24,20,15,85,47,23,30.11,30.01,29.84,10,10,10,16,7,24,0.00,1,,268
2012-12-23,55,38,21,34,24,19,89,64,25,30.15,30.09,30.03,10,10,5,8,1,,0.00,1,,201
2012-12-24,52,45,38,48,41,36,96,82,54,30.04,29.98,29.91,10,10,7,13,2,18,0.00,7,Rain,199
2012-12-25,61,52,43,48,44,39,97,78,46,30.09,30.03,29.93,10,9,0,12,2,,0.00,4,Fog-Rain,42
2012-12-26,50,44,40,49,43,37,98,92,64,30.05,29.70,29.43,10,8,1,12,7,16,1.27,7,Rain,4
2012-12-27,50,42,32,39,31,26,96,69,44,30.08,29.91,29.66,10,10,10,17,6,22,0.00,0,,278
2012-12-28,45,35,25,35,29,24,94,75,50,30.20,30.10,30.01,10,10,7,5,0,,0.00,3,,68
2012-12-29,53,45,38,44,36,24,96,76,49,29.98,29.81,29.68,10,8,2,17,3,23,0.26,6,Rain,290
2012-12-30,47,36,26,26,22,18,88,57,32,30.40,30.25,29.98,10,10,10,13,6,21,0.00,0,,281
2012-12-31,54,38,21,28,24,20,94,60,26,30.38,30.27,30.11,10,10,10,15,2,18,0.00,1,,210